Location: Newark
(54.6833°N, 25.2833°E)
Time: 17:54:26
(UTC+00:00)

A-11 Canister half - Pass Details

Date: 22 January 2021
Orbit: 1525 x 1684 km, 47.3° (Epoch: 05 March)

Event Time Altitude Azimuth Distance (km) Brightness Sun altitude
Rises 19:21:57 0° 282° (WNW) 4,768 12.4 -40.0°
Reaches altitude 10° 19:25:25 10° 273° (W) 3,805 11.6 -40.4°
Enters shadow 19:33:18 32° 218° (SW) 2,540 10.1 -41.5°
